Home   Weather   Amman   Past weeks

Flag for Jordan Past Weather in Amman, Jordan — Yesterday and Last 2 Weeks

Now
45 °F

Haze.


Feels Like: 45 °F
Forecast: 42 / 60 °F
Wind: No wind

Location: Amman Airport

Current Time: Jan 17, 2017 at 3:11:40 am

Latest Report: Jan 17, 2017 at 2:00 am


Visibility: 3 mi

Pressure: 30.15 "Hg (27.29 "Hg at 816m altitude)

Humidity: 76%

Dew Point: 37 °F

Location of AmmanLocation

Past Weather in Amman — Graph

°F

Amman Temperature Yesterday

Maximum temperature yesterday: 54 °F (at 3:00 pm)
Minimum temperature yesterday: 37 °F (at 7:00 am)
Average temperature yesterday: 45 °F

High & Low Weather Summary for the Past Weeks

 TemperatureHumidityPressure
High57 °F (Jan 5, 2:00 pm)100% (Jan 16, 7:00 am)30.27 "Hg (Jan 16, 7:00 am)
Low34 °F (Jan 10, 6:00 am)28% (Jan 5, 4:00 pm)29.89 "Hg (Jan 15, 5:00 am)
Average46 °F65%30.11 "Hg
* Reported Jan 2 2:00 am — Jan 17 2:00 am, Amman, Weather by CustomWeather, © 2017

Note: Actual official high and low records may vary slightly from our data, if they occured in-between our weather recording intervals... More about our weather records

Advertising

Amman Weather History for the Previous 24 Hours

Scroll right to see more
 ConditionsComfort  
Time TempWeatherWind HumidityBarometerVisibility
2:00 am
Tue, Jan 17
45 °FHaze.No wind76%30.15 "Hg3 mi
1:00 am45 °FHaze.No wind76%30.12 "Hg3 mi
12:00 am45 °FHaze.No wind81%30.15 "Hg3 mi
11:00 pm
Mon, Jan 16
46 °FHaze.No wind71%30.15 "Hg3 mi
10:00 pm46 °FHaze.No wind71%30.15 "Hg3 mi
9:00 pm46 °FHaze.No wind71%30.15 "Hg3 mi
8:00 pm46 °FHaze.No wind71%30.15 "Hg3 mi
7:00 pm46 °FHaze.No wind66%30.15 "Hg3 mi
6:00 pm48 °FHaze.No wind62%30.12 "Hg3 mi
5:00 pm52 °FHaze.5 mph67%30.12 "Hg3 mi
4:00 pm52 °FHaze.7 mph67%30.12 "Hg3 mi
3:00 pm54 °FHaze.5 mph63%30.12 "Hg3 mi
2:00 pm50 °FHaze.6 mph76%30.15 "Hg3 mi
1:00 pm50 °FHaze.12 mph67%30.18 "Hg3 mi
12:00 pm48 °FHaze.6 mph58%30.18 "Hg3 mi
11:00 am43 °FFog.6 mph87%30.24 "Hg2 mi
10:00 am41 °FFog.6 mph87%30.24 "Hg1 mi
9:00 am41 °FFog.6 mph87%30.21 "Hg1 mi
8:00 am39 °FFog.3 mph93%30.18 "Hg2 mi
7:00 am37 °FFog.No wind100%30.18 "Hg1 mi
6:00 am39 °FFog.No wind81%30.15 "Hg1 mi
5:00 am39 °FFog.5 mph93%30.15 "Hg2 mi
4:00 am41 °FFog.7 mph93%30.15 "Hg2 mi
3:00 am41 °FFog.8 mph93%30.15 "Hg2 mi
Weather by CustomWeather, © 2017

See weather overviewHow to use our weather pages